Time,TemperatureF,DewpointF,PressureIn,WindDirection,WindDirectionDegrees,WindSpeedMPH,WindSpeedGustMPH,Humidity,HourlyPrecipIn,Conditions,Clouds,dailyrainin,SoftwareType,DateUTC
2013-04-29 00:04:00,54.0,49.0,29.65,WNW,292,1.6,2.8,84,0.00,,,0.00,Rainwise IP-100,2013-04-29 07:04:00,
2013-04-29 00:09:00,53.8,49.0,29.65,WSW,247,2.3,3.0,84,0.00,,,0.00,Rainwise IP-100,2013-04-29 07:09:00,
2013-04-29 00:14:00,53.9,49.0,29.65,WSW,247,3.5,4.2,84,0.00,,,0.00,Rainwise IP-100,2013-04-29 07:14:00,
2013-04-29 00:19:00,53.9,49.0,29.65,WSW,247,4.4,6.5,84,0.00,,,0.00,Rainwise IP-100,2013-04-29 07:19:00,
2013-04-29 00:24:00,53.9,49.0,29.65,SSW,202,5.1,7.7,84,0.00,,,0.00,Rainwise IP-100,2013-04-29 07:24:00,
2013-04-29 00:29:00,54.0,49.0,29.65,WSW,247,8.9,10.5,83,0.00,,,0.00,Rainwise IP-100,2013-04-29 07:29:00,
2013-04-29 00:34:00,54.0,49.0,29.65,WSW,247,2.3,9.8,83,0.00,,,0.00,Rainwise IP-100,2013-04-29 07:34:00,
2013-04-29 00:39:00,53.9,49.0,29.65,WSW,247,2.6,6.3,83,0.00,,,0.00,Rainwise IP-100,2013-04-29 07:39:00,
2013-04-29 00:44:00,53.9,49.0,29.65,WSW,247,3.0,7.9,83,0.00,,,0.00,Rainwise IP-100,2013-04-29 07:44:00,
2013-04-29 00:49:00,53.7,48.0,29.65,SW,225,6.5,9.8,84,0.00,,,0.00,Rainwise IP-100,2013-04-29 07:49:00,
2013-04-29 00:54:00,53.8,49.0,29.65,WSW,247,5.1,11.2,84,0.00,,,0.00,Rainwise IP-100,2013-04-29 07:54:00,
2013-04-29 00:59:00,53.9,49.0,29.65,WSW,247,9.8,9.8,84,0.00,,,0.00,Rainwise IP-100,2013-04-29 07:59:00,
2013-04-29 01:04:00,53.7,48.0,29.65,South,180,2.6,10.3,84,0.00,,,0.00,Rainwise IP-100,2013-04-29 08:04:00,
2013-04-29 01:09:00,53.8,49.0,29.65,WSW,247,6.5,10.7,84,0.00,,,0.00,Rainwise IP-100,2013-04-29 08:09:00,
2013-04-29 01:14:00,53.9,49.0,29.65,SSW,202,3.5,10.3,84,0.00,,,0.00,Rainwise IP-100,2013-04-29 08:14:00,
2013-04-29 01:19:00,53.7,48.0,29.65,SW,225,8.6,10.7,84,0.00,,,0.00,Rainwise IP-100,2013-04-29 08:19:00,
2013-04-29 01:24:00,53.6,48.0,29.64,SW,225,4.7,11.7,84,0.00,,,0.00,Rainwise IP-100,2013-04-29 08:24:00,
2013-04-29 01:29:00,53.7,49.0,29.64,SW,225,3.3,7.9,85,0.00,,,0.00,Rainwise IP-100,2013-04-29 08:29:00,
2013-04-29 01:34:00,53.7,49.0,29.64,SW,225,3.7,6.3,85,0.00,,,0.00,Rainwise IP-100,2013-04-29 08:34:00,
2013-04-29 01:39:00,53.6,49.0,29.64,SW,225,1.6,4.7,85,0.00,,,0.00,Rainwise IP-100,2013-04-29 08:39:00,
2013-04-29 01:44:00,53.5,49.0,29.63,SW,225,2.8,5.6,86,0.00,,,0.00,Rainwise IP-100,2013-04-29 08:44:00,
2013-04-29 01:49:00,53.5,49.0,29.63,West,270,2.3,6.3,86,0.00,,,0.00,Rainwise IP-100,2013-04-29 08:49:00,
2013-04-29 01:54:00,53.5,49.0,29.63,WSW,247,3.0,4.4,86,0.00,,,0.00,Rainwise IP-100,2013-04-29 08:54:00,
2013-04-29 01:59:00,53.5,49.0,29.64,West,270,2.6,4.4,86,0.00,,,0.00,Rainwise IP-100,2013-04-29 08:59:00,
2013-04-29 02:04:00,53.4,49.0,29.63,WSW,247,2.1,4.4,86,0.00,,,0.00,Rainwise IP-100,2013-04-29 09:04:00,
2013-04-29 02:09:00,53.2,48.0,29.63,SW,225,1.9,4.0,86,0.00,,,0.00,Rainwise IP-100,2013-04-29 09:09:00,
2013-04-29 02:14:00,53.2,48.0,29.62,West,270,1.9,3.0,86,0.00,,,0.00,Rainwise IP-100,2013-04-29 09:14:00,
2013-04-29 02:19:00,53.2,48.0,29.63,West,270,3.7,4.7,86,0.00,,,0.00,Rainwise IP-100,2013-04-29 09:19:00,
2013-04-29 02:24:00,53.1,48.0,29.63,SSW,202,4.4,4.9,86,0.00,,,0.00,Rainwise IP-100,2013-04-29 09:24:00,
2013-04-29 02:29:00,53.0,49.0,29.63,WSW,247,2.1,4.9,87,0.00,,,0.00,Rainwise IP-100,2013-04-29 09:29:00,
2013-04-29 02:34:00,52.9,49.0,29.63,WSW,247,2.1,4.0,87,0.00,,,0.00,Rainwise IP-100,2013-04-29 09:34:00,
2013-04-29 02:39:00,52.8,49.0,29.64,WSW,247,2.8,3.3,87,0.00,,,0.00,Rainwise IP-100,2013-04-29 09:39:00,
2013-04-29 02:44:00,52.7,49.0,29.63,WSW,247,1.6,3.7,87,0.00,,,0.00,Rainwise IP-100,2013-04-29 09:44:00,
2013-04-29 02:49:00,52.7,49.0,29.63,WSW,247,0.0,2.1,87,0.00,,,0.00,Rainwise IP-100,2013-04-29 09:49:00,
2013-04-29 02:54:00,52.5,49.0,29.63,North,360,1.4,2.8,88,0.00,,,0.00,Rainwise IP-100,2013-04-29 09:54:00,
2013-04-29 02:59:00,52.1,48.0,29.63,North,360,0.0,2.6,88,0.00,,,0.00,Rainwise IP-100,2013-04-29 09:59:00,
2013-04-29 03:04:00,51.8,48.0,29.64,North,360,0.0,1.4,88,0.00,,,0.00,Rainwise IP-100,2013-04-29 10:04:00,
2013-04-29 03:09:00,51.5,49.0,29.64,North,360,0.0,0.0,89,0.00,,,0.00,Rainwise IP-100,2013-04-29 10:09:00,
2013-04-29 03:14:00,51.4,48.0,29.63,WSW,247,2.1,2.1,89,0.00,,,0.00,Rainwise IP-100,2013-04-29 10:14:00,
2013-04-29 03:19:00,51.5,49.0,29.63,WSW,247,0.0,2.6,89,0.00,,,0.00,Rainwise IP-100,2013-04-29 10:19:00,
2013-04-29 03:24:00,51.5,49.0,29.62,WSW,247,1.2,1.4,90,0.00,,,0.00,Rainwise IP-100,2013-04-29 10:24:00,
2013-04-29 03:29:00,51.5,49.0,29.62,WSW,247,0.0,1.4,90,0.00,,,0.00,Rainwise IP-100,2013-04-29 10:29:00,
2013-04-29 03:34:00,51.8,49.0,29.61,SSW,202,3.7,5.4,90,0.00,,,0.00,Rainwise IP-100,2013-04-29 10:34:00,
2013-04-29 03:39:00,52.1,49.0,29.62,WSW,247,2.6,4.7,90,0.00,,,0.00,Rainwise IP-100,2013-04-29 10:39:00,
2013-04-29 03:44:00,52.3,49.0,29.62,WSW,247,0.0,3.0,89,0.00,,,0.00,Rainwise IP-100,2013-04-29 10:44:00,
2013-04-29 03:49:00,52.3,49.0,29.62,WSW,247,1.2,1.6,89,0.00,,,0.00,Rainwise IP-100,2013-04-29 10:49:00,
2013-04-29 03:54:00,52.0,49.0,29.62,WSW,247,1.2,1.6,89,0.00,,,0.00,Rainwise IP-100,2013-04-29 10:54:00,
2013-04-29 03:59:00,51.9,49.0,29.62,WSW,247,0.0,1.9,89,0.00,,,0.00,Rainwise IP-100,2013-04-29 10:59:00,
2013-04-29 04:04:00,51.8,49.0,29.62,WSW,247,0.0,1.2,89,0.00,,,0.00,Rainwise IP-100,2013-04-29 11:04:00,
2013-04-29 04:09:00,51.7,49.0,29.61,WSW,247,1.6,1.6,89,0.00,,,0.00,Rainwise IP-100,2013-04-29 11:09:00,
2013-04-29 04:14:00,51.8,49.0,29.62,WSW,247,2.3,3.5,89,0.00,,,0.00,Rainwise IP-100,2013-04-29 11:14:00,
2013-04-29 04:19:00,51.8,49.0,29.62,WSW,247,3.5,3.5,89,0.00,,,0.00,Rainwise IP-100,2013-04-29 11:19:00,
2013-04-29 04:24:00,51.6,49.0,29.62,SSW,202,2.3,4.2,90,0.00,,,0.00,Rainwise IP-100,2013-04-29 11:24:00,
2013-04-29 04:29:00,51.4,48.0,29.62,SW,225,1.4,3.3,90,0.00,,,0.00,Rainwise IP-100,2013-04-29 11:29:00,
2013-04-29 04:34:00,51.3,48.0,29.62,WSW,247,1.9,2.1,90,0.00,,,0.00,Rainwise IP-100,2013-04-29 11:34:00,
2013-04-29 04:39:00,51.2,49.0,29.62,WSW,247,1.6,3.0,91,0.00,,,0.00,Rainwise IP-100,2013-04-29 11:39:00,
2013-04-29 04:44:00,51.1,49.0,29.62,SSW,202,1.4,3.3,91,0.00,,,0.00,Rainwise IP-100,2013-04-29 11:44:00,
2013-04-29 04:49:00,50.9,49.0,29.61,SSW,202,0.0,1.6,91,0.00,,,0.00,Rainwise IP-100,2013-04-29 11:49:00,
2013-04-29 04:54:00,50.8,49.0,29.61,WSW,247,0.0,2.3,91,0.00,,,0.00,Rainwise IP-100,2013-04-29 11:54:00,
2013-04-29 04:59:00,50.9,49.0,29.61,WSW,247,2.1,3.0,92,0.00,,,0.00,Rainwise IP-100,2013-04-29 11:59:00,
2013-04-29 05:04:00,50.8,49.0,29.62,WSW,247,1.2,3.3,92,0.00,,,0.00,Rainwise IP-100,2013-04-29 12:04:00,
2013-04-29 05:09:00,50.7,48.0,29.61,WSW,247,0.0,1.6,92,0.00,,,0.00,Rainwise IP-100,2013-04-29 12:09:00,
2013-04-29 05:14:00,50.7,48.0,29.61,WSW,247,0.0,1.4,92,0.00,,,0.00,Rainwise IP-100,2013-04-29 12:14:00,
2013-04-29 05:19:00,50.6,48.0,29.61,WSW,247,0.0,0.0,92,0.00,,,0.00,Rainwise IP-100,2013-04-29 12:19:00,
2013-04-29 05:24:00,50.5,48.0,29.61,WSW,247,2.1,2.1,92,0.00,,,0.00,Rainwise IP-100,2013-04-29 12:24:00,
2013-04-29 05:29:00,50.8,49.0,29.61,WSW,247,1.4,3.0,92,0.00,,,0.00,Rainwise IP-100,2013-04-29 12:29:00,
2013-04-29 05:34:00,50.9,49.0,29.62,WSW,247,1.4,3.7,93,0.00,,,0.00,Rainwise IP-100,2013-04-29 12:34:00,
2013-04-29 05:39:00,50.9,49.0,29.62,WSW,247,1.4,3.0,93,0.00,,,0.00,Rainwise IP-100,2013-04-29 12:39:00,
2013-04-29 05:44:00,50.9,49.0,29.62,WSW,247,1.4,2.6,93,0.00,,,0.00,Rainwise IP-100,2013-04-29 12:44:00,
2013-04-29 05:49:00,50.9,49.0,29.62,WSW,247,1.2,2.8,93,0.00,,,0.00,Rainwise IP-100,2013-04-29 12:49:00,
2013-04-29 05:54:00,50.9,49.0,29.62,WSW,247,0.0,1.6,93,0.00,,,0.00,Rainwise IP-100,2013-04-29 12:54:00,
2013-04-29 05:59:00,50.8,49.0,29.62,WSW,247,0.0,0.0,93,0.00,,,0.00,Rainwise IP-100,2013-04-29 12:59:00,
2013-04-29 06:04:00,50.5,48.0,29.62,WSW,247,0.0,0.0,93,0.00,,,0.00,Rainwise IP-100,2013-04-29 13:04:00,
2013-04-29 06:09:00,50.2,47.5,29.63,WSW,247,0.0,0.0,93,0.00,,,0.00,Rainwise IP-100,2013-04-29 13:09:00,
2013-04-29 06:14:00,50.1,47.5,29.62,WSW,247,0.0,0.0,93,0.00,,,0.00,Rainwise IP-100,2013-04-29 13:14:00,
2013-04-29 06:19:00,50.1,48.0,29.63,WSW,247,0.0,0.0,94,0.00,,,0.00,Rainwise IP-100,2013-04-29 13:19:00,
2013-04-29 06:24:00,50.0,48.0,29.63,WSW,247,0.0,0.0,94,0.00,,,0.00,Rainwise IP-100,2013-04-29 13:24:00,
2013-04-29 06:29:00,49.9,48.0,29.64,WSW,247,0.0,0.0,94,0.00,,,0.00,Rainwise IP-100,2013-04-29 13:29:00,
2013-04-29 06:34:00,50.0,48.0,29.63,WSW,247,0.0,0.0,94,0.00,,,0.00,Rainwise IP-100,2013-04-29 13:34:00,
2013-04-29 06:39:00,50.1,48.0,29.64,WSW,247,0.0,0.0,94,0.00,,,0.00,Rainwise IP-100,2013-04-29 13:39:00,
2013-04-29 06:44:00,50.4,49.0,29.64,WSW,247,0.0,0.0,95,0.00,,,0.00,Rainwise IP-100,2013-04-29 13:44:00,
2013-04-29 06:49:00,50.6,49.0,29.65,WSW,247,0.0,0.0,95,0.00,,,0.00,Rainwise IP-100,2013-04-29 13:49:00,
2013-04-29 06:54:00,50.9,50.0,29.64,WSW,247,0.0,0.0,95,0.00,,,0.00,Rainwise IP-100,2013-04-29 13:54:00,
2013-04-29 06:59:00,51.2,50.0,29.64,WSW,247,0.0,0.0,95,0.00,,,0.00,Rainwise IP-100,2013-04-29 13:59:00,
2013-04-29 07:04:00,51.6,50.5,29.64,WSW,247,0.0,0.0,94,0.00,,,0.00,Rainwise IP-100,2013-04-29 14:04:00,
2013-04-29 07:09:00,52.1,50.5,29.65,WSW,247,0.0,0.0,94,0.00,,,0.00,Rainwise IP-100,2013-04-29 14:09:00,
2013-04-29 07:14:00,52.4,50.5,29.65,WSW,247,0.0,0.0,94,0.00,,,0.00,Rainwise IP-100,2013-04-29 14:14:00,
2013-04-29 07:19:00,52.9,50.5,29.65,WSW,247,0.0,0.0,93,0.00,,,0.00,Rainwise IP-100,2013-04-29 14:19:00,
2013-04-29 07:24:00,53.4,51.0,29.65,WSW,247,1.6,1.6,93,0.00,,,0.00,Rainwise IP-100,2013-04-29 14:24:00,
2013-04-29 07:29:00,54.1,51.0,29.65,WSW,247,0.0,1.6,91,0.00,,,0.00,Rainwise IP-100,2013-04-29 14:29:00,
2013-04-29 07:34:00,55.0,53.0,29.65,WSW,247,0.0,0.0,90,0.00,,,0.00,Rainwise IP-100,2013-04-29 14:34:00,
2013-04-29 07:39:00,56.0,53.0,29.65,WSW,247,0.0,0.0,88,0.00,,,0.00,Rainwise IP-100,2013-04-29 14:39:00,
2013-04-29 07:44:00,57.0,53.5,29.66,WSW,247,0.0,0.0,87,0.00,,,0.00,Rainwise IP-100,2013-04-29 14:44:00,
2013-04-29 07:49:00,58.0,54.0,29.66,WSW,247,0.0,0.0,85,0.00,,,0.00,Rainwise IP-100,2013-04-29 14:49:00,
2013-04-29 07:54:00,59.1,53.5,29.66,WSW,247,0.0,0.0,82,0.00,,,0.00,Rainwise IP-100,2013-04-29 14:54:00,
2013-04-29 07:59:00,60.1,53.5,29.66,WSW,247,0.0,0.0,79,0.00,,,0.00,Rainwise IP-100,2013-04-29 14:59:00,
2013-04-29 08:04:00,61.2,53.5,29.66,WSW,247,0.0,0.0,76,0.00,,,0.00,Rainwise IP-100,2013-04-29 15:04:00,
2013-04-29 08:09:00,62.3,54.0,29.66,WSW,247,0.0,0.0,73,0.00,,,0.00,Rainwise IP-100,2013-04-29 15:09:00,
2013-04-29 08:14:00,63.2,54.0,29.66,WSW,247,0.0,0.0,72,0.00,,,0.00,Rainwise IP-100,2013-04-29 15:14:00,
2013-04-29 08:19:00,63.8,54.5,29.66,WSW,247,1.4,2.1,71,0.00,,,0.00,Rainwise IP-100,2013-04-29 15:19:00,
2013-04-29 08:24:00,64.0,54.0,29.66,WSW,247,0.0,2.1,70,0.00,,,0.00,Rainwise IP-100,2013-04-29 15:24:00,
2013-04-29 08:29:00,64.3,54.0,29.66,WSW,247,0.0,1.4,69,0.00,,,0.00,Rainwise IP-100,2013-04-29 15:29:00,
2013-04-29 08:34:00,65.3,54.5,29.66,WSW,247,0.0,0.0,69,0.00,,,0.00,Rainwise IP-100,2013-04-29 15:34:00,
2013-04-29 08:39:00,66.1,55.0,29.66,West,270,2.1,3.3,68,0.00,,,0.00,Rainwise IP-100,2013-04-29 15:39:00,
2013-04-29 08:44:00,66.1,54.5,29.66,WSW,247,2.6,4.4,67,0.00,,,0.00,Rainwise IP-100,2013-04-29 15:44:00,
2013-04-29 08:49:00,65.9,54.0,29.66,WSW,247,0.0,3.5,66,0.00,,,0.00,Rainwise IP-100,2013-04-29 15:49:00,
2013-04-29 08:54:00,66.1,54.0,29.66,SSW,202,2.8,3.5,65,0.00,,,0.00,Rainwise IP-100,2013-04-29 15:54:00,
2013-04-29 08:59:00,66.5,54.0,29.66,WNW,292,2.3,3.0,64,0.00,,,0.00,Rainwise IP-100,2013-04-29 15:59:00,
2013-04-29 09:04:00,66.5,54.0,29.66,West,270,1.4,3.7,64,0.00,,,0.00,Rainwise IP-100,2013-04-29 16:04:00,
2013-04-29 09:09:00,66.7,54.0,29.66,SSW,202,2.1,3.7,64,0.00,,,0.00,Rainwise IP-100,2013-04-29 16:09:00,
2013-04-29 09:14:00,67.3,54.0,29.66,SSW,202,3.5,7.0,62,0.00,,,0.00,Rainwise IP-100,2013-04-29 16:14:00,
2013-04-29 09:19:00,67.4,53.5,29.66,SSW,202,4.9,7.0,61,0.00,,,0.00,Rainwise IP-100,2013-04-29 16:19:00,
2013-04-29 09:24:00,66.4,53.0,29.66,SSW,202,5.4,7.5,61,0.00,,,0.00,Rainwise IP-100,2013-04-29 16:24:00,
2013-04-29 09:29:00,65.6,52.0,29.66,SW,225,5.4,7.5,62,0.00,,,0.00,Rainwise IP-100,2013-04-29 16:29:00,
2013-04-29 09:34:00,64.9,53.0,29.67,WSW,247,2.3,6.1,64,0.00,,,0.00,Rainwise IP-100,2013-04-29 16:34:00,
2013-04-29 09:39:00,64.4,52.0,29.66,WSW,247,2.8,6.5,64,0.00,,,0.00,Rainwise IP-100,2013-04-29 16:39:00,
2013-04-29 09:44:00,64.5,52.0,29.66,SSW,202,4.2,6.5,64,0.00,,,0.00,Rainwise IP-100,2013-04-29 16:44:00,
2013-04-29 09:49:00,64.9,53.0,29.66,West,270,2.3,5.8,64,0.00,,,0.00,Rainwise IP-100,2013-04-29 16:49:00,
2013-04-29 09:54:00,65.3,53.0,29.66,West,270,2.3,6.5,64,0.00,,,0.00,Rainwise IP-100,2013-04-29 16:54:00,
2013-04-29 09:59:00,65.5,53.0,29.66,West,270,3.7,7.5,64,0.00,,,0.00,Rainwise IP-100,2013-04-29 16:59:00,
2013-04-29 10:04:00,65.5,53.0,29.67,WNW,292,6.5,10.0,64,0.00,,,0.00,Rainwise IP-100,2013-04-29 17:04:00,
2013-04-29 10:09:00,65.1,53.0,29.67,SW,225,5.8,9.3,64,0.00,,,0.00,Rainwise IP-100,2013-04-29 17:09:00,
2013-04-29 10:14:00,64.3,51.0,29.68,WSW,247,3.0,9.6,63,0.00,,,0.00,Rainwise IP-100,2013-04-29 17:14:00,
2013-04-29 10:19:00,63.9,51.0,29.67,SSW,202,7.0,9.3,63,0.00,,,0.00,Rainwise IP-100,2013-04-29 17:19:00,
2013-04-29 10:24:00,64.3,51.0,29.66,SW,225,7.2,9.3,62,0.00,,,0.00,Rainwise IP-100,2013-04-29 17:24:00,
2013-04-29 10:29:00,65.1,51.0,29.67,WSW,247,5.1,9.3,61,0.00,,,0.00,Rainwise IP-100,2013-04-29 17:29:00,
2013-04-29 10:34:00,65.9,51.0,29.66,West,270,6.8,8.6,60,0.00,,,0.00,Rainwise IP-100,2013-04-29 17:34:00,
2013-04-29 10:39:00,66.5,52.0,29.66,WSW,247,5.6,8.9,59,0.00,,,0.00,Rainwise IP-100,2013-04-29 17:39:00,
2013-04-29 10:44:00,67.1,52.0,29.67,SSW,202,5.6,8.9,58,0.00,,,0.00,Rainwise IP-100,2013-04-29 17:44:00,
2013-04-29 10:49:00,68.1,52.0,29.66,West,270,4.2,8.4,57,0.00,,,0.00,Rainwise IP-100,2013-04-29 17:49:00,
2013-04-29 10:54:00,68.9,52.0,29.66,WSW,247,7.2,9.1,55,0.00,,,0.00,Rainwise IP-100,2013-04-29 17:54:00,
2013-04-29 10:59:00,69.8,52.0,29.66,WSW,247,4.0,8.9,54,0.00,,,0.00,Rainwise IP-100,2013-04-29 17:59:00,
2013-04-29 11:04:00,70.1,52.0,29.66,WNW,292,6.1,10.3,53,0.00,,,0.00,Rainwise IP-100,2013-04-29 18:04:00,
2013-04-29 11:09:00,69.6,52.0,29.67,WSW,247,7.5,11.2,53,0.00,,,0.00,Rainwise IP-100,2013-04-29 18:09:00,
2013-04-29 11:14:00,69.1,51.0,29.66,WSW,247,5.6,9.8,53,0.00,,,0.00,Rainwise IP-100,2013-04-29 18:14:00,
2013-04-29 11:19:00,68.6,52.0,29.66,WSW,247,6.1,11.4,55,0.00,,,0.00,Rainwise IP-100,2013-04-29 18:19:00,
2013-04-29 11:24:00,67.3,52.0,29.66,WNW,292,6.1,11.7,57,0.00,,,0.00,Rainwise IP-100,2013-04-29 18:24:00,
2013-04-29 11:29:00,65.9,51.0,29.66,West,270,7.7,13.1,59,0.00,,,0.00,Rainwise IP-100,2013-04-29 18:29:00,
2013-04-29 11:34:00,65.1,50.5,29.66,WSW,247,10.3,13.3,60,0.00,,,0.00,Rainwise IP-100,2013-04-29 18:34:00,
2013-04-29 11:39:00,64.1,50.5,29.67,WSW,247,6.3,14.0,62,0.00,,,0.00,Rainwise IP-100,2013-04-29 18:39:00,
2013-04-29 11:44:00,63.5,51.0,29.67,WSW,247,6.1,12.8,64,0.00,,,0.00,Rainwise IP-100,2013-04-29 18:44:00,
2013-04-29 11:49:00,63.6,51.0,29.66,SSW,202,5.1,9.3,64,0.00,,,0.00,Rainwise IP-100,2013-04-29 18:49:00,
2013-04-29 11:54:00,63.8,51.0,29.66,WSW,247,5.8,13.3,64,0.00,,,0.00,Rainwise IP-100,2013-04-29 18:54:00,
2013-04-29 11:59:00,64.5,51.0,29.66,WSW,247,7.0,11.7,63,0.00,,,0.00,Rainwise IP-100,2013-04-29 18:59:00,
2013-04-29 12:04:00,65.3,51.0,29.66,WSW,247,4.7,12.1,61,0.00,,,0.00,Rainwise IP-100,2013-04-29 19:04:00,
2013-04-29 12:09:00,65.4,51.0,29.66,West,270,7.5,12.1,61,0.00,,,0.00,Rainwise IP-100,2013-04-29 19:09:00,
2013-04-29 12:14:00,66.1,51.0,29.66,WSW,247,5.8,10.3,60,0.00,,,0.00,Rainwise IP-100,2013-04-29 19:14:00,
2013-04-29 12:19:00,66.9,52.0,29.65,WSW,247,8.9,11.2,58,0.00,,,0.00,Rainwise IP-100,2013-04-29 19:19:00,
2013-04-29 12:24:00,67.5,52.0,29.65,SSW,202,7.0,13.1,57,0.00,,,0.00,Rainwise IP-100,2013-04-29 19:24:00,
2013-04-29 12:29:00,67.9,51.0,29.65,SW,225,9.6,13.1,55,0.00,,,0.00,Rainwise IP-100,2013-04-29 19:29:00,
2013-04-29 12:34:00,67.8,50.5,29.65,WSW,247,8.2,12.8,54,0.00,,,0.00,Rainwise IP-100,2013-04-29 19:34:00,
2013-04-29 12:39:00,68.1,50.5,29.65,SSW,202,6.5,12.1,54,0.00,,,0.00,Rainwise IP-100,2013-04-29 19:39:00,
2013-04-29 12:44:00,68.1,50.5,29.64,SW,225,5.6,13.5,54,0.00,,,0.00,Rainwise IP-100,2013-04-29 19:44:00,
2013-04-29 12:49:00,66.5,50.5,29.65,SW,225,5.8,14.0,56,0.00,,,0.00,Rainwise IP-100,2013-04-29 19:49:00,
2013-04-29 12:54:00,64.3,50.5,29.65,WSW,247,6.3,18.9,60,0.00,,,0.00,Rainwise IP-100,2013-04-29 19:54:00,
2013-04-29 12:59:00,62.7,50.0,29.65,WSW,247,10.3,16.8,63,0.00,,,0.00,Rainwise IP-100,2013-04-29 19:59:00,
2013-04-29 13:04:00,62.5,50.5,29.65,SW,225,11.2,15.9,65,0.00,,,0.00,Rainwise IP-100,2013-04-29 20:04:00,
2013-04-29 13:09:00,62.6,50.5,29.65,South,180,2.3,15.6,65,0.00,,,0.00,Rainwise IP-100,2013-04-29 20:09:00,
2013-04-29 13:14:00,62.5,51.0,29.64,South,180,10.3,14.9,66,0.00,,,0.00,Rainwise IP-100,2013-04-29 20:14:00,
2013-04-29 13:19:00,63.0,51.0,29.64,SW,225,5.4,12.8,65,0.00,,,0.00,Rainwise IP-100,2013-04-29 20:19:00,
2013-04-29 13:24:00,63.5,51.0,29.65,SW,225,8.6,14.0,64,0.00,,,0.00,Rainwise IP-100,2013-04-29 20:24:00,
2013-04-29 13:29:00,63.4,51.0,29.64,West,270,7.2,14.5,64,0.00,,,0.00,Rainwise IP-100,2013-04-29 20:29:00,
2013-04-29 13:34:00,63.2,51.0,29.65,SSW,202,10.0,13.8,65,0.00,,,0.00,Rainwise IP-100,2013-04-29 20:34:00,
2013-04-29 13:39:00,63.0,51.0,29.65,West,270,7.9,15.6,65,0.00,,,0.00,Rainwise IP-100,2013-04-29 20:39:00,
2013-04-29 13:44:00,63.0,51.0,29.64,West,270,4.7,14.2,65,0.00,,,0.00,Rainwise IP-100,2013-04-29 20:44:00,
2013-04-29 13:49:00,63.5,51.0,29.64,West,270,4.0,14.7,65,0.00,,,0.00,Rainwise IP-100,2013-04-29 20:49:00,
2013-04-29 13:54:00,64.2,51.0,29.64,SSW,202,9.1,14.0,64,0.00,,,0.00,Rainwise IP-100,2013-04-29 20:54:00,
2013-04-29 13:59:00,64.0,51.0,29.64,SW,225,9.6,14.0,63,0.00,,,0.00,Rainwise IP-100,2013-04-29 20:59:00,
2013-04-29 14:04:00,63.2,50.5,29.63,SSW,202,10.7,13.5,64,0.00,,,0.00,Rainwise IP-100,2013-04-29 21:04:00,
2013-04-29 14:09:00,62.6,50.5,29.63,SW,225,4.0,17.0,65,0.00,,,0.00,Rainwise IP-100,2013-04-29 21:09:00,
2013-04-29 14:14:00,62.4,50.5,29.63,WSW,247,9.6,14.5,65,0.00,,,0.00,Rainwise IP-100,2013-04-29 21:14:00,
2013-04-29 14:19:00,62.5,50.5,29.63,West,270,7.2,15.6,65,0.00,,,0.00,Rainwise IP-100,2013-04-29 21:19:00,
2013-04-29 14:24:00,62.1,50.5,29.62,SW,225,13.3,16.3,66,0.00,,,0.00,Rainwise IP-100,2013-04-29 21:24:00,
2013-04-29 14:29:00,61.4,50.5,29.62,SW,225,13.1,17.7,67,0.00,,,0.00,Rainwise IP-100,2013-04-29 21:29:00,
2013-04-29 14:34:00,61.6,50.5,29.63,SW,225,10.0,14.2,67,0.00,,,0.00,Rainwise IP-100,2013-04-29 21:34:00,
2013-04-29 14:39:00,62.1,51.0,29.62,West,270,7.0,14.5,67,0.00,,,0.00,Rainwise IP-100,2013-04-29 21:39:00,
2013-04-29 14:44:00,61.9,51.0,29.62,SW,225,11.4,14.5,67,0.00,,,0.00,Rainwise IP-100,2013-04-29 21:44:00,
2013-04-29 14:49:00,61.4,50.5,29.62,SW,225,9.3,15.6,67,0.00,,,0.00,Rainwise IP-100,2013-04-29 21:49:00,
2013-04-29 14:54:00,60.7,50.0,29.62,South,180,10.3,16.6,68,0.00,,,0.00,Rainwise IP-100,2013-04-29 21:54:00,
2013-04-29 14:59:00,60.5,50.5,29.62,WSW,247,12.6,15.6,69,0.00,,,0.00,Rainwise IP-100,2013-04-29 21:59:00,
2013-04-29 15:04:00,60.8,50.5,29.62,WSW,247,11.9,14.7,69,0.00,,,0.00,Rainwise IP-100,2013-04-29 22:04:00,
2013-04-29 15:09:00,61.3,50.5,29.62,WSW,247,7.7,13.5,68,0.00,,,0.00,Rainwise IP-100,2013-04-29 22:09:00,
2013-04-29 15:14:00,61.8,51.0,29.61,SSW,202,8.4,12.4,67,0.00,,,0.00,Rainwise IP-100,2013-04-29 22:14:00,
2013-04-29 15:19:00,62.3,51.0,29.62,WSW,247,9.3,15.2,66,0.00,,,0.00,Rainwise IP-100,2013-04-29 22:19:00,
2013-04-29 15:24:00,62.0,50.5,29.61,SSW,202,6.3,14.0,66,0.00,,,0.00,Rainwise IP-100,2013-04-29 22:24:00,
2013-04-29 15:29:00,61.6,50.0,29.60,SW,225,13.5,15.2,66,0.00,,,0.00,Rainwise IP-100,2013-04-29 22:29:00,
2013-04-29 15:34:00,61.7,50.0,29.60,SSW,202,10.5,13.8,66,0.00,,,0.00,Rainwise IP-100,2013-04-29 22:34:00,
2013-04-29 15:39:00,61.8,50.5,29.60,West,270,4.0,14.0,66,0.00,,,0.00,Rainwise IP-100,2013-04-29 22:39:00,
2013-04-29 15:44:00,62.2,50.5,29.60,SSW,202,5.6,12.4,66,0.00,,,0.00,Rainwise IP-100,2013-04-29 22:44:00,
2013-04-29 15:49:00,62.6,50.5,29.60,SSW,202,6.3,14.2,65,0.00,,,0.00,Rainwise IP-100,2013-04-29 22:49:00,
2013-04-29 15:54:00,62.3,50.5,29.59,WSW,247,9.3,14.5,65,0.00,,,0.00,Rainwise IP-100,2013-04-29 22:54:00,
2013-04-29 15:59:00,62.1,50.5,29.59,SSW,202,8.9,16.3,66,0.00,,,0.00,Rainwise IP-100,2013-04-29 22:59:00,
2013-04-29 16:04:00,62.7,50.5,29.59,WSW,247,4.2,13.3,65,0.00,,,0.00,Rainwise IP-100,2013-04-29 23:04:00,
2013-04-29 16:09:00,63.4,51.0,29.59,SW,225,4.4,10.7,64,0.00,,,0.00,Rainwise IP-100,2013-04-29 23:09:00,
2013-04-29 16:14:00,63.4,51.0,29.59,SW,225,6.5,12.1,64,0.00,,,0.00,Rainwise IP-100,2013-04-29 23:14:00,
2013-04-29 16:19:00,63.4,50.5,29.58,SSW,202,7.2,12.1,63,0.00,,,0.00,Rainwise IP-100,2013-04-29 23:19:00,
2013-04-29 16:24:00,63.2,50.5,29.58,SSW,202,7.9,13.3,63,0.00,,,0.00,Rainwise IP-100,2013-04-29 23:24:00,
2013-04-29 16:29:00,63.1,50.5,29.58,WSW,247,4.9,13.8,63,0.00,,,0.00,Rainwise IP-100,2013-04-29 23:29:00,
2013-04-29 16:34:00,63.1,50.5,29.58,West,270,2.8,13.3,63,0.00,,,0.00,Rainwise IP-100,2013-04-29 23:34:00,
2013-04-29 16:39:00,63.1,50.5,29.58,SSW,202,9.1,14.0,64,0.00,,,0.00,Rainwise IP-100,2013-04-29 23:39:00,
2013-04-29 16:44:00,63.0,50.5,29.58,SW,225,5.8,13.3,64,0.00,,,0.00,Rainwise IP-100,2013-04-29 23:44:00,
2013-04-29 16:49:00,63.2,50.5,29.58,WSW,247,13.8,13.8,64,0.00,,,0.00,Rainwise IP-100,2013-04-29 23:49:00,
2013-04-29 16:54:00,62.9,50.5,29.58,South,180,4.9,15.2,64,0.00,,,0.00,Rainwise IP-100,2013-04-29 23:54:00,
2013-04-29 16:59:00,62.8,50.5,29.57,SW,225,10.3,12.8,64,0.00,,,0.00,Rainwise IP-100,2013-04-29 23:59:00,
2013-04-29 17:04:00,63.0,50.5,29.57,SW,225,7.2,14.5,64,0.00,,,0.00,Rainwise IP-100,2013-04-30 00:04:00,
2013-04-29 17:09:00,63.2,50.5,29.57,South,180,5.8,13.1,63,0.00,,,0.00,Rainwise IP-100,2013-04-30 00:09:00,
2013-04-29 17:14:00,63.8,51.0,29.57,WSW,247,4.0,15.4,63,0.00,,,0.00,Rainwise IP-100,2013-04-30 00:14:00,
2013-04-29 17:19:00,63.8,50.5,29.57,SSW,202,11.2,12.4,62,0.00,,,0.00,Rainwise IP-100,2013-04-30 00:19:00,
2013-04-29 17:24:00,63.3,50.5,29.57,SSW,202,9.1,13.5,63,0.00,,,0.00,Rainwise IP-100,2013-04-30 00:24:00,
2013-04-29 17:29:00,62.8,50.5,29.57,SW,225,5.4,13.5,63,0.00,,,0.00,Rainwise IP-100,2013-04-30 00:29:00,
2013-04-29 17:34:00,62.5,50.0,29.56,WSW,247,8.2,14.5,64,0.00,,,0.00,Rainwise IP-100,2013-04-30 00:34:00,
2013-04-29 17:39:00,62.1,50.0,29.57,SW,225,10.5,13.1,65,0.00,,,0.00,Rainwise IP-100,2013-04-30 00:39:00,
2013-04-29 17:44:00,61.8,50.0,29.57,SSW,202,8.4,15.4,65,0.00,,,0.00,Rainwise IP-100,2013-04-30 00:44:00,
2013-04-29 17:49:00,61.4,50.0,29.57,South,180,3.5,15.4,66,0.00,,,0.00,Rainwise IP-100,2013-04-30 00:49:00,
2013-04-29 17:54:00,61.3,50.0,29.57,South,180,7.9,13.8,66,0.00,,,0.00,Rainwise IP-100,2013-04-30 00:54:00,
2013-04-29 17:59:00,61.3,50.5,29.56,WSW,247,6.3,12.4,67,0.00,,,0.00,Rainwise IP-100,2013-04-30 00:59:00,
2013-04-29 18:04:00,61.5,50.5,29.57,SW,225,4.2,11.9,67,0.00,,,0.00,Rainwise IP-100,2013-04-30 01:04:00,
2013-04-29 18:09:00,62.0,50.5,29.57,WSW,247,10.0,12.6,66,0.00,,,0.00,Rainwise IP-100,2013-04-30 01:09:00,
2013-04-29 18:14:00,61.8,50.5,29.56,South,180,7.0,13.3,66,0.00,,,0.00,Rainwise IP-100,2013-04-30 01:14:00,
2013-04-29 18:19:00,61.2,50.0,29.56,SSW,202,4.7,12.8,66,0.00,,,0.00,Rainwise IP-100,2013-04-30 01:19:00,
2013-04-29 18:24:00,61.2,50.0,29.56,WSW,247,8.6,11.0,67,0.00,,,0.00,Rainwise IP-100,2013-04-30 01:24:00,
2013-04-29 18:29:00,61.0,50.0,29.56,WSW,247,5.4,14.9,67,0.00,,,0.00,Rainwise IP-100,2013-04-30 01:29:00,
2013-04-29 18:34:00,60.6,50.0,29.56,SSW,202,5.1,12.4,68,0.00,,,0.00,Rainwise IP-100,2013-04-30 01:34:00,
2013-04-29 18:39:00,60.7,50.0,29.56,WSW,247,3.7,11.0,68,0.00,,,0.00,Rainwise IP-100,2013-04-30 01:39:00,
2013-04-29 18:44:00,60.6,50.0,29.56,WSW,247,7.5,10.3,68,0.00,,,0.00,Rainwise IP-100,2013-04-30 01:44:00,
2013-04-29 18:49:00,60.1,50.0,29.56,SSW,202,5.8,12.6,69,0.00,,,0.00,Rainwise IP-100,2013-04-30 01:49:00,
2013-04-29 18:54:00,59.7,49.0,29.55,WSW,247,4.4,11.2,69,0.00,,,0.00,Rainwise IP-100,2013-04-30 01:54:00,
2013-04-29 18:59:00,59.5,50.0,29.56,SSW,202,9.3,13.8,70,0.00,,,0.00,Rainwise IP-100,2013-04-30 01:59:00,
2013-04-29 19:04:00,59.4,50.0,29.55,SW,225,6.8,14.0,71,0.00,,,0.00,Rainwise IP-100,2013-04-30 02:04:00,
2013-04-29 19:09:00,59.3,50.0,29.55,SSW,202,9.1,11.2,71,0.00,,,0.00,Rainwise IP-100,2013-04-30 02:09:00,
2013-04-29 19:14:00,59.3,50.0,29.55,SSW,202,4.2,11.2,71,0.00,,,0.00,Rainwise IP-100,2013-04-30 02:14:00,
2013-04-29 19:19:00,59.2,50.0,29.55,WSW,247,3.3,11.7,71,0.00,,,0.00,Rainwise IP-100,2013-04-30 02:19:00,
2013-04-29 19:24:00,59.1,50.0,29.55,WSW,247,4.2,10.3,71,0.00,,,0.00,Rainwise IP-100,2013-04-30 02:24:00,
2013-04-29 19:29:00,58.9,50.0,29.55,SSW,202,7.9,9.1,72,0.00,,,0.00,Rainwise IP-100,2013-04-30 02:29:00,
2013-04-29 19:34:00,58.6,50.0,29.55,SSW,202,4.4,11.0,72,0.00,,,0.00,Rainwise IP-100,2013-04-30 02:34:00,
2013-04-29 19:39:00,58.3,49.0,29.55,SSW,202,5.4,10.5,72,0.00,,,0.00,Rainwise IP-100,2013-04-30 02:39:00,
2013-04-29 19:44:00,58.1,50.0,29.54,WSW,247,4.4,11.7,73,0.00,,,0.00,Rainwise IP-100,2013-04-30 02:44:00,
2013-04-29 19:49:00,57.9,50.0,29.55,WSW,247,4.4,9.8,74,0.00,,,0.00,Rainwise IP-100,2013-04-30 02:49:00,
2013-04-29 19:54:00,57.7,50.0,29.55,SSW,202,3.5,11.0,74,0.00,,,0.00,Rainwise IP-100,2013-04-30 02:54:00,
2013-04-29 19:59:00,57.5,50.0,29.55,SSW,202,3.5,7.7,74,0.00,,,0.00,Rainwise IP-100,2013-04-30 02:59:00,
2013-04-29 20:04:00,57.5,50.0,29.55,SSW,202,4.9,10.0,75,0.00,,,0.00,Rainwise IP-100,2013-04-30 03:04:00,
2013-04-29 20:09:00,57.5,50.0,29.55,SSW,202,6.8,11.0,75,0.00,,,0.00,Rainwise IP-100,2013-04-30 03:09:00,
2013-04-29 20:14:00,57.3,50.0,29.55,SW,225,3.5,8.4,75,0.00,,,0.00,Rainwise IP-100,2013-04-30 03:14:00,
2013-04-29 20:19:00,57.1,49.0,29.55,SSW,202,6.1,9.6,75,0.00,,,0.00,Rainwise IP-100,2013-04-30 03:19:00,
2013-04-29 20:24:00,56.7,49.0,29.55,SW,225,5.6,9.8,76,0.00,,,0.00,Rainwise IP-100,2013-04-30 03:24:00,
2013-04-29 20:29:00,56.4,49.0,29.55,SSW,202,6.1,9.3,76,0.00,,,0.00,Rainwise IP-100,2013-04-30 03:29:00,
2013-04-29 20:34:00,56.3,49.0,29.55,South,180,7.7,8.9,77,0.00,,,0.00,Rainwise IP-100,2013-04-30 03:34:00,
2013-04-29 20:39:00,56.2,49.0,29.55,WSW,247,4.0,9.1,77,0.00,,,0.00,Rainwise IP-100,2013-04-30 03:39:00,
2013-04-29 20:44:00,56.1,49.0,29.55,South,180,3.3,8.6,77,0.00,,,0.00,Rainwise IP-100,2013-04-30 03:44:00,
2013-04-29 20:49:00,55.9,49.0,29.56,South,180,10.5,10.7,77,0.00,,,0.00,Rainwise IP-100,2013-04-30 03:49:00,
2013-04-29 20:54:00,55.6,49.0,29.56,SSW,202,7.0,10.5,78,0.00,,,0.00,Rainwise IP-100,2013-04-30 03:54:00,
2013-04-29 20:59:00,55.4,48.0,29.56,SW,225,2.6,9.8,78,0.00,,,0.00,Rainwise IP-100,2013-04-30 03:59:00,
2013-04-29 21:01:00,55.4,49.0,29.56,SW,225,5.6,9.8,79,0.00,,,0.00,Rainwise IP-100,2013-04-30 04:01:00,
2013-04-29 21:06:00,55.2,49.0,29.57,SSW,202,7.7,9.1,79,0.00,,,0.00,Rainwise IP-100,2013-04-30 04:06:00,
2013-04-29 21:07:00,55.1,49.0,29.57,WSW,247,3.0,9.8,79,0.00,,,0.00,Rainwise IP-100,2013-04-30 04:07:00,
2013-04-29 21:08:00,55.1,49.0,29.56,SW,225,2.8,9.8,79,0.00,,,0.00,Rainwise IP-100,2013-04-30 04:08:00,
2013-04-29 21:13:00,54.9,49.0,29.57,SSW,202,4.4,11.7,79,0.00,,,0.00,Rainwise IP-100,2013-04-30 04:13:00,
2013-04-29 21:18:00,54.6,48.0,29.57,SW,225,4.7,12.6,80,0.00,,,0.00,Rainwise IP-100,2013-04-30 04:18:00,
2013-04-29 21:23:00,54.2,48.0,29.57,South,180,7.2,12.8,81,0.00,,,0.00,Rainwise IP-100,2013-04-30 04:23:00,
2013-04-29 21:28:00,53.9,48.0,29.57,SSW,202,4.9,11.9,81,0.00,,,0.00,Rainwise IP-100,2013-04-30 04:28:00,
2013-04-29 21:33:00,53.7,48.0,29.56,SW,225,4.7,12.6,82,0.00,,,0.00,Rainwise IP-100,2013-04-30 04:33:00,
2013-04-29 21:38:00,53.5,48.0,29.57,SSW,202,5.8,11.9,82,0.00,,,0.00,Rainwise IP-100,2013-04-30 04:38:00,
2013-04-29 21:43:00,53.3,48.0,29.57,SSW,202,7.0,11.0,83,0.00,,,0.00,Rainwise IP-100,2013-04-30 04:43:00,
2013-04-29 21:48:00,53.2,47.5,29.57,SSW,202,7.7,11.4,83,0.00,,,0.00,Rainwise IP-100,2013-04-30 04:48:00,
2013-04-29 21:53:00,53.2,48.0,29.57,WSW,247,6.1,11.4,84,0.00,,,0.00,Rainwise IP-100,2013-04-30 04:53:00,
2013-04-29 21:58:00,53.1,48.0,29.57,West,270,5.6,11.4,84,0.00,,,0.00,Rainwise IP-100,2013-04-30 04:58:00,
2013-04-29 22:03:00,53.1,48.0,29.57,SW,225,4.4,10.0,84,0.00,,,0.00,Rainwise IP-100,2013-04-30 05:03:00,
2013-04-29 22:08:00,53.0,48.0,29.57,SW,225,4.0,11.4,84,0.00,,,0.00,Rainwise IP-100,2013-04-30 05:08:00,
2013-04-29 22:13:00,52.9,48.0,29.57,SW,225,4.2,8.4,84,0.00,,,0.00,Rainwise IP-100,2013-04-30 05:13:00,
2013-04-29 22:18:00,52.8,48.0,29.57,SSW,202,6.8,9.3,84,0.00,,,0.00,Rainwise IP-100,2013-04-30 05:18:00,
2013-04-29 22:23:00,52.8,48.0,29.57,SW,225,3.7,8.6,84,0.00,,,0.00,Rainwise IP-100,2013-04-30 05:23:00,
2013-04-29 22:28:00,52.7,48.0,29.57,WSW,247,4.2,8.2,85,0.00,,,0.00,Rainwise IP-100,2013-04-30 05:28:00,
2013-04-29 22:33:00,52.7,48.0,29.57,WSW,247,4.2,8.2,84,0.00,,,0.00,Rainwise IP-100,2013-04-30 05:33:00,
2013-04-29 22:38:00,52.7,48.0,29.57,WSW,247,5.8,8.2,84,0.00,,,0.00,Rainwise IP-100,2013-04-30 05:38:00,
2013-04-29 22:43:00,52.7,48.0,29.57,South,180,4.4,8.4,85,0.00,,,0.00,Rainwise IP-100,2013-04-30 05:43:00,
2013-04-29 22:48:00,52.7,48.0,29.57,SW,225,6.1,9.6,85,0.00,,,0.00,Rainwise IP-100,2013-04-30 05:48:00,
2013-04-29 22:53:00,52.5,48.0,29.57,WSW,247,4.2,9.6,85,0.00,,,0.00,Rainwise IP-100,2013-04-30 05:53:00,
2013-04-29 22:58:00,52.4,47.5,29.57,South,180,1.2,10.7,85,0.00,,,0.00,Rainwise IP-100,2013-04-30 05:58:00,
2013-04-29 23:03:00,52.2,47.5,29.57,WSW,247,5.8,9.3,85,0.00,,,0.00,Rainwise IP-100,2013-04-30 06:03:00,
2013-04-29 23:08:00,52.0,47.5,29.57,WSW,247,2.6,9.1,85,0.00,,,0.00,Rainwise IP-100,2013-04-30 06:08:00,
2013-04-29 23:13:00,51.9,47.5,29.57,SW,225,6.8,8.4,85,0.00,,,0.00,Rainwise IP-100,2013-04-30 06:13:00,
2013-04-29 23:18:00,51.8,48.0,29.57,WSW,247,3.5,7.9,86,0.00,,,0.00,Rainwise IP-100,2013-04-30 06:18:00,
2013-04-29 23:23:00,51.7,48.0,29.57,SW,225,3.5,9.6,86,0.00,,,0.00,Rainwise IP-100,2013-04-30 06:23:00,
2013-04-29 23:28:00,51.5,48.0,29.56,SW,225,3.7,9.6,86,0.00,,,0.00,Rainwise IP-100,2013-04-30 06:28:00,
2013-04-29 23:33:00,51.4,47.5,29.56,WSW,247,3.0,8.9,86,0.00,,,0.00,Rainwise IP-100,2013-04-30 06:33:00,
2013-04-29 23:38:00,51.4,47.5,29.57,SW,225,4.7,11.2,87,0.00,,,0.00,Rainwise IP-100,2013-04-30 06:38:00,
2013-04-29 23:43:00,51.3,47.5,29.57,WSW,247,4.2,8.4,87,0.00,,,0.00,Rainwise IP-100,2013-04-30 06:43:00,
2013-04-29 23:48:00,51.2,47.5,29.57,SSW,202,4.7,9.6,87,0.00,,,0.00,Rainwise IP-100,2013-04-30 06:48:00,
2013-04-29 23:53:00,51.1,47.5,29.57,SSW,202,4.0,8.6,87,0.00,,,0.00,Rainwise IP-100,2013-04-30 06:53:00,
2013-04-29 23:58:00,51.1,47.5,29.57,WSW,247,1.9,7.2,87,0.00,,,0.00,Rainwise IP-100,2013-04-30 06:58:00,